カタログに戻る

ARIANE 42P+ DEB

LostHEO
NORAD 34193·DEBRIS·🇫🇷 France

打ち上げ Oct 28, 1992 から Guiana Space Centre

Loading…

次のパス (今後24時間)

TLE

古いSource: Space-Track

元期: Jun 24, 2024, 01:34 UTC

1 34193U 92072Z   24176.06529847  .00000372  00000-0  81536-3 0  9999
2 34193   8.5632  61.6846 6516084 238.1465  42.3256  3.18973625251808

AllMySatでARIANE 42P+ DEBをリアルタイム追跡

Download on the App Store